Regional Weather Roundup
Issued by NWS

Home | Current Version | Previous Version | Text Only | Print | Product List | Glossary On
Versions: 1 2 3 4 5 6 7 8 9 10 11 12 13 14 15 16 17 18 19 20 21 22 23 24 25 26 27 28 29 30 31 32 33 34 35 36 37 38 39 40 41 42 43 44 45 46 47 48 49 50
000
ASUS43 KBIS 071310
RWRND

NORTH DAKOTA REGIONAL WEATHER ROUNDUP
NATIONAL WEATHER SERVICE BISMARCK ND
800 AM CDT TUE JUL 07 2015

NOTE: "FAIR" INDICATES FEW OR NO CLOUDS BELOW 12,000 FEET WITH NO
SIGNIFICANT WEATHER AND/OR OBSTRUCTIONS TO VISIBILITY.


NDZ001>003-009>011-017-071400-
NORTHWEST NORTH DAKOTA

CITY           SKY/WX    TMP DP  RH WIND       PRES   REMARKS
WILLISTON      PTSUNNY   59  53  80 SE3       30.13F HAZE
MINOT          SUNNY     59  49  69 S6        30.15S
MINOT AFB      SUNNY     56  56  99 SW7       30.14S
$$

NDZ018>021-031>035-040>046-071400-
SOUTHWEST NORTH DAKOTA

CITY           SKY/WX    TMP DP  RH WIND       PRES   REMARKS
BISMARCK       SUNNY     51  49  92 NE3       30.19F
DICKINSON      CLOUDY    55  52  89 S10       30.14S FOG
GARRISON         N/A     57  51  80 S7        30.16F
HETTINGER ARPT MOSUNNY   53  51  93 E7        30.16F FOG
$$

NDZ004>008-012>016-024-026-027-054-071400-
NORTHEAST NORTH DAKOTA

CITY           SKY/WX    TMP DP  RH WIND       PRES   REMARKS
GRAND FORKS    SUNNY     54  50  86 W5        30.18R
GRND FRKS AFB  SUNNY     56  50  80 W7        30.19R
DEVILS LAKE    SUNNY     57  46  67 SW14      30.17S
$$

NDZ022-023-025-028>030-036>039-047>053-071400-
SOUTHEAST NORTH DAKOTA

CITY           SKY/WX    TMP DP  RH WIND       PRES   REMARKS
FARGO          SUNNY     55  46  71 CALM      30.20R
JAMESTOWN      SUNNY     55  48  77 S6        30.20S
$$




USA.gov is the U.S. government's official web portal to all federal, state and local government web resources and services.